KU4ME Weather Reports


time (UTC)temp
C
wind
direction
speed
KPH
gust
KPH
rain 1hr
cm
rain 24hr
cm
rain mn
cm
humidity
%
barometer
mb
20260503201005 20 266 0.0 9.7 0.00 0.00 0.00 33 1017.8
20260503195005 19 95 1.6 4.8 0.00 0.00 0.00 32 1018.2
20260503194006 19 123 0.0 11.3 0.00 0.00 0.00 32 1018.2
20260503192006 20 182 0.0 0.0 0.00 0.00 0.00 33 1018.5
20260503191006 20 182 0.0 8.0 0.00 0.00 0.00 32 1018.6
20260503184006 19 242 1.6 8.0 0.00 0.00 0.00 31 1019.0
20260503183006 19 62 4.8 11.3 0.00 0.00 0.00 30 1019.0
20260503182006 19 16 0.0 9.7 0.00 0.00 0.00 31 1019.1
20260503180005 18 240 0.0 8.0 0.00 0.00 0.00 31 1019.4
20260503175006 18 270 1.6 8.0 0.00 0.00 0.00 33 1019.6
20260503174005 18 128 0.0 0.0 0.00 0.00 0.00 35 1019.8
20260503173005 18 128 0.0 8.0 0.00 0.00 0.00 36 1019.9
20260503171005 17 248 0.0 0.0 0.00 0.00 0.00 38 1020.1
20260503151005 13 133 0.0 0.0 0.00 0.00 0.00 50 1021.3
20260503131005 6 234 0.0 0.0 0.00 0.00 0.00 94 1021.3
20260503081004 6 234 0.0 0.0 0.00 0.00 0.00 91 1018.6
20260503072004 7 234 0.0 0.0 0.00 0.00 0.00 89 1018.1
20260503055003 8 234 0.0 0.0 0.00 0.00 0.00 77 1017.7
20260503054004 8 234 0.0 0.0 0.00 0.00 0.00 76 1017.8
20260503053003 9 234 0.0 0.0 0.00 0.00 0.00 76 1017.8
20260503052003 9 234 0.0 0.0 0.00 0.00 0.00 77 1017.8
20260503051004 9 234 0.0 0.0 0.00 0.00 0.00 79 1017.8
20260503050004 9 234 0.0 0.0 0.00 0.00 0.00 79 1017.7
20260503045003 9 234 0.0 0.0 0.00 0.00 0.00 78 1017.7
20260503044007 9 234 0.0 0.0 0.00 0.00 0.00 77 1017.5
20260503043007 9 234 0.0 0.0 0.00 0.00 0.00 77 1017.4
20260503042006 9 234 0.0 0.0 0.00 0.00 0.00 76 1017.4
20260503041008 9 234 0.0 0.0 0.00 0.00 0.00 76 1017.3
20260503040007 10 234 0.0 0.0 0.00 0.00 0.00 77 1017.4
20260503034007 10 234 0.0 0.0 0.00 0.00 0.00 76 1017.4
20260503032007 10 234 0.0 0.0 0.00 0.00 0.00 73 1017.3
20260503025007 10 234 0.0 0.0 0.00 0.00 0.00 75 1017.2
20260503024007 10 234 0.0 0.0 0.00 0.00 0.00 75 1017.2
20260503023007 10 234 0.0 0.0 0.00 0.00 0.00 74 1017.0
20260503021006 10 234 0.0 0.0 0.00 0.00 0.00 72 1016.9
20260503014006 10 234 0.0 0.0 0.00 0.00 0.00 68 1016.3
20260503013006 10 234 0.0 0.0 0.00 0.00 0.00 67 1016.3
20260503012007 11 234 0.0 0.0 0.00 0.00 0.00 67 1016.2
20260503011007 11 234 0.0 0.0 0.00 0.00 0.00 66 1016.1
20260503010007 11 234 0.0 0.0 0.00 0.00 0.00 66 1015.9
20260503005007 11 234 0.0 0.0 0.00 0.00 0.00 61 1015.9
20260503004007 11 234 0.0 0.0 0.00 0.00 0.00 60 1015.8
20260503003007 12 234 0.0 0.0 0.00 0.00 0.00 59 1015.6
20260503002006 12 234 0.0 0.0 0.00 0.00 0.00 58 1015.5
20260503001006 12 234 0.0 0.0 0.00 0.00 0.00 58 1015.3
20260503000006 12 234 0.0 0.0 0.00 0.00 0.00 55 1015.1
20260502235007 13 234 0.0 0.0 0.00 0.00 0.00 51 1015.1
20260502234006 13 234 0.0 0.0 0.00 0.00 0.00 49 1015.0
20260502233006 13 234 0.0 0.0 0.00 0.00 0.00 50 1014.9
20260502232006 14 234 0.0 0.0 0.00 0.00 0.00 48 1014.8
20260502231006 14 234 0.0 0.0 0.00 0.00 0.00 47 1014.9
20260502225007 15 282 3.2 9.7 0.00 0.00 0.00 46 1014.9
20260502224007 15 167 0.0 0.0 0.00 0.00 0.00 45 1014.9
20260502223006 15 167 0.0 0.0 0.00 0.00 0.00 44 1014.8
20260502222006 16 167 0.0 9.7 0.00 0.00 0.00 43 1014.7
20260502221006 16 253 0.0 4.8 0.00 0.00 0.00 44 1014.5
20260502220006 16 253 0.0 0.0 0.00 0.00 0.00 41 1014.3
20260502215006 17 253 0.0 4.8 0.00 0.00 0.00 40 1014.2
20260502214006 17 253 0.0 0.0 0.00 0.00 0.00 37 1014.1
20260502213006 18 253 0.0 11.3 0.00 0.00 0.00 37 1014.1
20260502212006 18 246 0.0 4.8 0.00 0.00 0.00 35 1014.0
20260502211006 18 267 0.0 0.0 0.00 0.00 0.00 38 1014.1
20260502210006 18 267 1.6 11.3 0.00 0.00 0.00 36 1014.1